SL-14 DEB, 45315

Orbit data source: Space-Track

SL-14 DEB, 45315 is space debris in LEO originally from a launch on Thu, 15 Aug 1991 UTC launched from the Plesetsk Missile And Space Complex (PKMTR). Debris objects in space refer to the collection of defunct objects orbiting the Earth. Examples of debris include non-operational satellites, rocket bodies, and fragments generated from explosions, collisions, or faulty payload assembly.

Loading next visibility...
Identifier
45315, 1991-056BD
Orbit
LEO
Country
Flag of CISCIS
Related business
Manufacturer
Unknown
Mission
Spacecraft
Bus & Motor
Unknown
Mass
Unknown
Launch date (UTC)
1991-08-15 (34 years ago)
Launch vehicle
Unknown
Launch site
Plesetsk Missile And Space Complex (PKMTR)
Object type
Payload
Rocket body
Debris
Shape & HBR
Unknown
Radar Cross Section
Small (<0.1 m²)

Expand to show TLE details & history
Last TLE update: 9 hours ago

TLE from 9 hours ago
0 SL-14 DEB
1 45315U 91056BD  25261.22206776  .00000355  00000-0  91131-3 0  9998
2 45315  82.5640 338.5787 0031588 152.6232 207.6562 13.15352990266855
Epoch: 2025-09-18T05:19Z
TLE epoch observation values (Epoch: 2025-09-18T05:19:46.654Z)
Latitude
-0.00005°
Longitude
-98.75246°
Altitude
1,226.558 km
Speed
7.231 km/s
True Right ascension
22h 34m 18s
True Declination
0° 00' 00"
Sunlit
Object was in full shadow at epoch
Visualization orbit readout
Latitude
Unknown
Longitude
Unknown
Altitude
Unknown
Speed
Unknown
Apparent Right ascension
Unknown
Apparent Declination
Unknown
Sunlit
N/A
Visualization observer readout
Local Sidereal Time
07:29:10
Azimuth
Unknown
Elevation
Unknown
Doppler factor
Unknown
Orbital elements
Apogee altitude
1,223.706 km
Perigee altitude
1,175.831 km
Semi-major axis
7,577.906 km
Eccentricity
0.00316
Inclination
82.564°
RAAN
338.5787°
Arg. of periapsis
152.6232°
True anomaly
207.48877°
Mean anomaly
207.6562°
Eccentric anomaly
207.57243°
Mean motion
3.29018 °/min
Orbital period
109.42 mins
BSTAR
0.00091131
Loading maneuver chart data...
Computing Atmospheric mass density...
Loading historical data...
Loading historical data...
Loading historical data...
Loading historical data...
Loading historical data...
Loading historical data...
Loading historical data...

Documentation

Showing up to 5 results
|